#timestamp,LO_Frequency,Hit,StdDev 
1593046815.4,286047001.7,N
1593046835.3,286047005.1,N
1593046855.1,286047005.4,N
1593046856.0,286047005.4,N
1593046875.8,286047005.0,N
1593046895.7,286047004.7,N
1593046915.5,286047004.9,N
1593046935.3,286047005.0,N
1593046955.2,286047003.1,N
1593046975.0,286047005.1,N
1593046975.9,286047005.1,N
1593046995.8,286047006.9,N
1593047015.6,286047007.3,N
1593047035.4,286047006.6,N
1593047055.3,286047006.9,N
1593047075.1,286047006.4,N
1593047095.8,286047006.1,N
1593047115.7,286047006.5,N
1593047135.5,286047007.8,N
1593047155.4,286047008.5,N
1593047175.2,286047008.1,N
1593047195.0,286047010.8,N
1593047195.9,286047010.8,N
1593047215.8,286047010.3,N
1593047235.6,286047006.2,N
1593047255.4,286047006.3,N
1593047275.3,286047009.1,N
1593047295.1,286047009.1,N
1593047315.9,286047004.8,N
1593047335.7,286047005.1,N
1593047355.5,286047005.6,N
1593047375.4,286047003.0,N
1593047395.2,286047003.8,N
1593047415.1,286047005.5,N
1593047416.0,286047005.5,N
1593047435.8,286047005.5,N
1593047455.6,286047003.8,N
1593047475.5,286047001.7,N
1593047495.3,286047001.5,N
1593047515.1,286047003.6,N
1593047535.9,286047005.7,N
1593047555.7,286047008.6,Y
1593047575.6,286047003.4,P
1593047595.4,286047006.3,P
1593047615.2,286047007.3,P
1593047635.1,286047010.0,Y
1593047636.0,286047010.0,P
1593047655.8,286047007.6,P
1593047675.7,286047006.6,P
1593047695.5,286047010.4,Y
1593047715.3,286047000.7,P
1593047735.2,286047000.1,N
1593047755.0,286046998.7,N
1593047755.9,286046998.7,N
1593047775.8,286047002.3,N
1593047795.6,286047000.2,N
1593047815.4,286046997.3,N
1593047835.3,286046996.1,N
1593047855.1,286046995.1,N
1593047875.8,286047001.1,N
1593047895.7,286047002.0,N
1593047915.5,286047004.8,N
1593047935.4,286047005.3,N
1593047955.2,286047007.5,N
1593047975.0,286047007.9,N
1593047975.9,286047007.9,N
1593047995.8,286047009.2,N
1593048015.6,286047008.3,N
1593048035.4,286047007.7,N
1593048055.3,286047008.4,N
1593048075.1,286047007.9,N
1593048095.9,286047006.5,N
1593048115.7,286047004.5,N
1593048135.5,286047005.9,N
1593048155.4,286047005.3,N
1593048175.2,286047006.0,N
1593048195.0,286047004.0,N
1593048195.9,286047004.0,N
1593048215.8,286047002.1,N
1593048235.6,286047004.4,N
1593048255.5,286047001.7,N
1593048275.3,286046999.7,N
1593048295.1,286047000.9,N
1593048315.9,286047001.3,N
1593048335.7,286047003.6,N
1593048355.5,286047002.9,N
1593048375.4,286047001.5,N
1593048395.2,286047001.9,N
1593048415.1,286046999.7,N
1593048416.0,286046999.7,N
1593048435.8,286046998.6,N
1593048455.6,286046999.3,N
1593048475.5,286046997.4,N
1593048495.3,286046996.6,N
1593048515.1,286046993.7,N
1593048535.9,286046992.6,N
1593048555.7,286046993.2,N
1593048575.6,286046992.3,N
1593048595.4,286046992.6,N
1593048615.2,286046992.4,N
1593048635.1,286046996.4,N
1593048636.0,286046996.4,N
1593048655.8,286046997.0,N
1593048675.7,286047000.7,N
1593048695.5,286047001.9,N
1593048715.3,286047001.7,N
1593048735.2,286047002.0,N
1593048755.0,286047003.8,N
1593048755.9,286047003.8,N
1593048775.8,286047002.3,N
1593048795.6,286047002.5,N
1593048815.4,286047000.2,N
1593048835.3,286046998.6,N
1593048855.1,286047000.8,N
1593048875.8,286047002.6,N
1593048895.7,286047001.3,N
1593048915.5,286047001.7,N
1593048935.4,286047004.2,N
1593048955.2,286047004.7,N
1593048975.0,286047006.0,N
1593048975.9,286047006.0,N
1593048995.8,286047011.9,N
1593049015.6,286047003.0,N
1593049035.5,286047001.6,N
1593049055.3,286047002.3,N
1593049075.1,286047002.0,N
1593049095.9,286047002.5,N
1593049115.7,286047003.8,N
1593049135.5,286047007.5,N
1593049155.4,286047006.9,N
1593049175.2,286047008.3,N
1593049195.0,286047008.2,N
1593049196.0,286047008.2,N
1593049215.8,286047008.2,N
1593049235.6,286047010.5,Y
1593049255.5,286047004.9,P
1593049275.3,286047005.2,P
1593049295.1,286047001.3,N
1593049315.9,286047002.3,N
1593049335.7,286047000.3,N
1593049355.6,286047000.5,N
1593049375.4,286046997.3,N
1593049395.2,286046995.8,N
1593049415.1,286046993.7,N
1593049416.0,286046993.7,N
1593049435.8,286046993.3,N
1593049455.6,286046994.6,N
1593049475.5,286046995.9,N
1593049495.3,286046997.7,N
1593049515.1,286046997.4,N
1593049535.9,286046995.2,N
1593049555.7,286046997.2,N
1593049575.6,286046997.3,N
1593049595.4,286046998.8,N
1593049615.2,286046998.6,N
1593049635.1,286046995.4,N
1593049636.0,286046995.4,N
1593049655.8,286046997.7,N
1593049675.6,286047000.8,N
1593049695.5,286047003.8,N
1593049715.3,286047003.0,N
1593049735.2,286047004.8,N
1593049755.0,286047008.9,N
1593049755.9,286047008.9,N
1593049775.7,286047008.3,N
1593049795.6,286047009.1,N
1593049815.4,286047007.9,N
1593049835.3,286047007.8,N
1593049855.1,286047009.8,N
1593049856.0,286047009.8,N
1593049875.8,286047009.7,N
1593049895.7,286047013.2,N
1593049915.5,286047013.0,N
1593049935.3,286047016.8,N
1593049955.2,286047016.4,N
1593049975.0,286047016.0,N
1593049975.9,286047016.0,N
1593049995.8,286047018.0,N
1593050015.6,286047021.9,N
1593050035.4,286047020.7,N
1593050055.3,286047024.9,Y
1593050075.1,286047018.4,P
1593050095.9,286047017.6,P
1593050115.7,286047019.2,P
1593050135.5,286047018.9,Y
1593050155.4,286047003.3,P
1593050175.2,286047002.9,N
1593050195.0,286047003.8,N
1593050195.9,286047003.8,N
1593050215.8,286047001.6,N
1593050235.6,286047001.3,N
1593050255.5,286047004.1,N
1593050275.3,286047003.9,N
1593050295.1,286047000.1,N
1593050315.9,286047000.3,N
1593050335.7,286047003.9,N
1593050355.5,286047003.1,N
1593050375.4,286047005.1,N
1593050395.2,286047006.5,N
